Valley City, ND

3:15 AM CDT on August 27, 2016 (GMT -0500)
Valley City

Weather History for KBAC - May, 2013

Change the Weather History Date:

Monday, May 20, 2013

  Actual Average (KJMS) Record (KJMS)
Temperature  
Mean Temperature 56 °F 57 °F  
Max Temperature 62 °F 69 °F 91 °F (1930)
Min Temperature 51 °F 44 °F 20 °F (1907)
Degree Days  
Heating Degree Days 8 9  
Month to date heating degree days 243  
Since 1 July heating degree days 8837  
Cooling Degree Days 0 1  
Month to date cooling degree days 9  
Year to date cooling degree days 11  
Growing Degree Days 6 (Base 50)    
Moisture  
Dew Point 55 °F    
Average Humidity 100    
Maximum Humidity 100    
Minimum Humidity 100    
Precipitation  
Precipitation 1.44 in 0.09 in 1.25 in (2013)
Month to date precipitation 1.65  
Year to date precipitation 4.54  
Sea Level Pressure  
Sea Level Pressure 29.51 in    
Wind  
Wind Speed 15 mph (NE)    
Max Wind Speed 26 mph    
Max Gust Speed 36 mph    
Visibility 3 miles    
Events Fog , Rain    
T = Trace of Precipitation, MM = Missing Value Source: NWS Daily Summary

Daily Weather History Graph

Daily Weather History Graph

Search for Another Location

Airport or City:

Trip Planner

Search our weather history database for the weather conditions in past years. The results will help you decide how hot, cold, wet, or windy it might be!

Date:

Astronomy

May. 20, 2013 Rise Set
Actual Time 5:50 AM CDT 9:07 PM CDT
Civil Twilight 5:14 AM CDT 9:43 PM CDT
Nautical Twilight 4:26 AM CDT 10:32 PM CDT
Astronomical Twilight 3:25 AM CDT 11:33 PM CDT
Moon 3:58 PM CDT (5/20) 3:06 AM CDT (5/20)
Length of Visible Light 16h 29m
Length of Day
15h 16m
Waxing Gibbous, 75% of the Moon is Illuminated
May 20
Waxing Gibbous
May 24
Full
May 31
Last Quarter
Jun 8
New
Jun 16
First Quarter

Hourly Weather History & Observations

Time (CDT) Temp. Dew Point Humidity Pressure Visibility Wind Dir Wind Speed Gust Speed Precip Events Conditions
12:15 AM 62.6 °F 62.6 °F 100% 29.57 in 7.0 mi East 6.9 mph - N/A   Overcast
12:35 AM 62.6 °F 62.6 °F 100% 29.58 in 7.0 mi ENE 12.7 mph - N/A   Overcast
12:55 AM 62.6 °F 62.6 °F 100% 29.57 in 7.0 mi ENE 11.5 mph 17.3 mph N/A   Overcast
1:15 AM 60.8 °F 60.8 °F 100% 29.57 in 5.0 mi ENE 16.1 mph - N/A   Overcast
1:35 AM 59.0 °F 59.0 °F 100% 29.57 in 1.0 mi ENE 15.0 mph - N/A   Overcast
1:55 AM 59.0 °F 59.0 °F 100% 29.57 in 0.5 mi ENE 16.1 mph - N/A Fog Fog
2:15 AM 59.0 °F 59.0 °F 100% 29.56 in 3.0 mi ENE 16.1 mph 21.9 mph N/A Rain Light Rain
2:35 AM 59.0 °F 59.0 °F 100% 29.56 in 4.0 mi ENE 16.1 mph 21.9 mph N/A Rain Light Rain
2:55 AM 59.0 °F 59.0 °F 100% 29.55 in 7.0 mi ENE 13.8 mph 21.9 mph N/A   Overcast
3:15 AM 57.2 °F 57.2 °F 100% 29.55 in 4.0 mi NE 13.8 mph 18.4 mph N/A   Overcast
3:35 AM 57.2 °F 57.2 °F 100% 29.55 in 3.0 mi NE 12.7 mph 20.7 mph N/A   Overcast
3:55 AM 55.4 °F 55.4 °F 100% 29.55 in 7.0 mi NE 16.1 mph 25.3 mph N/A Rain Light Rain
4:35 AM 53.6 °F 53.6 °F 100% 29.55 in 3.0 mi NE 15.0 mph 20.7 mph 0.03 in Rain Light Rain
4:55 AM 53.6 °F 53.6 °F 100% 29.55 in 3.0 mi NE 12.7 mph 17.3 mph 0.11 in Rain Rain
5:15 AM 53.6 °F 53.6 °F 100% 29.54 in 3.0 mi NE 11.5 mph 18.4 mph 0.02 in Rain Light Rain
5:35 AM 53.6 °F 53.6 °F 100% 29.53 in 3.0 mi NE 10.4 mph 17.3 mph 0.08 in Rain Rain
5:55 AM 53.6 °F 53.6 °F 100% 29.53 in 3.0 mi NNE 16.1 mph 20.7 mph 0.18 in Rain Rain
6:15 AM 53.6 °F 53.6 °F 100% 29.53 in 3.0 mi NNE 15.0 mph 20.7 mph 0.10 in Rain Rain
6:35 AM 53.6 °F 53.6 °F 100% 29.53 in 3.0 mi NNE 13.8 mph 21.9 mph 0.16 in Rain Rain
6:55 AM 51.8 °F 51.8 °F 100% 29.52 in 3.0 mi NNE 17.3 mph 24.2 mph 0.18 in Rain Light Rain
7:15 AM 51.8 °F 51.8 °F 100% 29.52 in 3.0 mi NNE 16.1 mph - 0.02 in Rain Light Rain
7:35 AM 51.8 °F 51.8 °F 100% 29.52 in 3.0 mi NNE 17.3 mph 21.9 mph 0.05 in Rain Light Rain
7:55 AM 51.8 °F 51.8 °F 100% 29.51 in 3.0 mi NNE 17.3 mph 21.9 mph 0.07 in Rain Light Rain
8:15 AM 53.6 °F 53.6 °F 100% 29.51 in 5.0 mi NNE 17.3 mph 24.2 mph 0.01 in Rain Light Rain
8:35 AM 53.6 °F 53.6 °F 100% 29.50 in 2.5 mi NNE 16.1 mph 23.0 mph 0.01 in Rain Light Rain
9:15 AM 53.6 °F 53.6 °F 100% 29.49 in 3.0 mi NNE 16.1 mph 20.7 mph 0.01 in Rain Light Rain
9:35 AM 53.6 °F 53.6 °F 100% 29.49 in 2.5 mi NNE 12.7 mph - 0.02 in Rain Light Rain
9:55 AM 53.6 °F 53.6 °F 100% 29.49 in 3.0 mi NNE 12.7 mph - 0.04 in Rain Light Rain
10:35 AM 53.6 °F 53.6 °F 100% 29.47 in 1.5 mi NNE 10.4 mph - 0.12 in Rain Heavy Rain
10:55 AM 53.6 °F 53.6 °F 100% 29.47 in 3.0 mi NE 12.7 mph 16.1 mph 0.19 in Rain Rain
11:15 AM 53.6 °F 53.6 °F 100% 29.46 in 4.0 mi NE 13.8 mph - 0.02 in Rain Rain
11:35 AM 55.4 °F 55.4 °F 100% 29.46 in 4.0 mi NE 12.7 mph - 0.04 in Rain Light Rain
11:55 AM 55.4 °F 55.4 °F 100% 29.46 in 3.0 mi ENE 13.8 mph 17.3 mph 0.08 in Rain Light Rain
12:15 PM 55.4 °F 55.4 °F 100% 29.46 in 2.0 mi NE 17.3 mph 20.7 mph 0.03 in Rain Rain
12:35 PM 55.4 °F 55.4 °F 100% 29.45 in 2.0 mi NE 17.3 mph 21.9 mph 0.07 in Rain Light Rain
1:15 PM 55.4 °F 55.4 °F 100% 29.45 in 2.5 mi NE 15.0 mph 25.3 mph 0.02 in Rain Light Rain
1:55 PM 55.4 °F 55.4 °F 100% 29.45 in 1.5 mi NE 17.3 mph 24.2 mph 0.07 in Rain Light Rain
2:15 PM 55.4 °F 55.4 °F 100% 29.45 in 1.8 mi NE 19.6 mph 25.3 mph 0.01 in Rain Light Rain
2:35 PM 53.6 °F 53.6 °F 100% 29.46 in 1.5 mi NE 19.6 mph - 0.05 in Rain Rain
2:55 PM 53.6 °F 53.6 °F 100% 29.46 in 1.2 mi NE 21.9 mph 28.8 mph 0.12 in Rain Rain
3:15 PM 53.6 °F 53.6 °F 100% 29.46 in 1.2 mi NE 20.7 mph 27.6 mph 0.02 in Rain Light Rain
3:35 PM 53.6 °F 53.6 °F 100% 29.46 in 1.2 mi NE 18.4 mph 29.9 mph 0.03 in Rain Light Rain
3:55 PM 53.6 °F 53.6 °F 100% 29.46 in 1.0 mi NE 23.0 mph 31.1 mph 0.04 in   Overcast
4:15 PM 53.6 °F 53.6 °F 100% 29.46 in 1.8 mi NE 19.6 mph 29.9 mph N/A   Mostly Cloudy
4:35 PM 53.6 °F 53.6 °F 100% 29.46 in 2.0 mi NE 18.4 mph 29.9 mph 0.01 in Rain Light Rain
4:55 PM 53.6 °F 53.6 °F 100% 29.46 in 2.5 mi NE 18.4 mph 34.5 mph 0.01 in Rain Light Rain
5:15 PM 53.6 °F 53.6 °F 100% 29.45 in 2.5 mi NE 26.5 mph 34.5 mph N/A Rain Light Rain
5:35 PM 53.6 °F 53.6 °F 100% 29.46 in 2.0 mi NE 23.0 mph 29.9 mph N/A Rain Light Rain
5:55 PM 53.6 °F 53.6 °F 100% 29.46 in 3.0 mi NE 23.0 mph 34.5 mph N/A   Overcast
6:15 PM 53.6 °F 53.6 °F 100% 29.47 in 1.5 mi NE 23.0 mph 33.4 mph 0.03 in Rain Light Rain
6:35 PM 53.6 °F 53.6 °F 100% 29.47 in 3.0 mi NE 23.0 mph 34.5 mph 0.05 in Rain Light Rain
6:55 PM 53.6 °F 53.6 °F 100% 29.47 in 4.0 mi NE 23.0 mph 32.2 mph 0.07 in Rain Light Rain
7:15 PM 53.6 °F 53.6 °F 100% 29.48 in 3.0 mi NE 24.2 mph 32.2 mph 0.01 in Rain Light Rain
7:35 PM 53.6 °F 53.6 °F 100% 29.48 in 4.0 mi NE 21.9 mph 35.7 mph 0.02 in   Overcast
7:55 PM 53.6 °F 53.6 °F 100% 29.49 in 3.0 mi NE 21.9 mph 33.4 mph 0.03 in Rain Light Rain
8:15 PM 53.6 °F 53.6 °F 100% 29.49 in 4.0 mi NNE 18.4 mph 29.9 mph 0.01 in Rain Light Rain
8:35 PM 53.6 °F 53.6 °F 100% 29.50 in 6.0 mi NNE 19.6 mph 32.2 mph 0.02 in Rain Light Rain
9:15 PM 51.8 °F 51.8 °F 100% 29.51 in 3.0 mi NNE 24.2 mph 29.9 mph 0.02 in Rain Rain
9:35 PM 51.8 °F 51.8 °F 100% 29.52 in 4.0 mi NNE 24.2 mph 33.4 mph 0.05 in Rain Light Rain
9:55 PM 51.8 °F 51.8 °F 100% 29.53 in 10.0 mi NNE 23.0 mph 29.9 mph 0.05 in Rain Light Rain
10:15 PM 51.8 °F 51.8 °F 100% 29.53 in 3.0 mi NE 21.9 mph 29.9 mph N/A   Overcast
10:35 PM 51.8 °F 51.8 °F 100% 29.54 in 0.5 mi NNE 18.4 mph 31.1 mph N/A Rain Light Rain
10:55 PM 51.8 °F 51.8 °F 100% 29.54 in 2.0 mi NNE 21.9 mph 28.8 mph 0.10 in Rain Heavy Rain
11:15 PM 51.8 °F 51.8 °F 100% 29.55 in 2.0 mi NNE 20.7 mph 28.8 mph N/A Rain Light Rain
11:35 PM 51.8 °F 51.8 °F 100% 29.55 in 3.0 mi NE 19.6 mph 25.3 mph N/A Rain Light Rain
11:55 PM 53.6 °F 53.6 °F 100% 29.55 in 9.0 mi NE 20.7 mph 28.8 mph N/A   Overcast